Hamilton, OH

10:00 PM EDT on July 25, 2017 (GMT -0400)
Butler County Regional

Weather History for KHAO - November, 2012

Change the Weather History Date:

Tuesday, November 13, 2012

  Actual Average (KLUK) Record (KLUK)
Temperature  
Mean Temperature 32 °F -  
Max Temperature 43 °F 53 °F 73 °F (1958)
Min Temperature 21 °F 35 °F 18 °F (1986)
Degree Days  
Heating Degree Days 33    
Moisture  
Dew Point 22 °F    
Average Humidity 76    
Maximum Humidity 89    
Minimum Humidity 43    
Precipitation  
Precipitation 0.00 in - - ()
Sea Level Pressure  
Sea Level Pressure 30.51 in    
Wind  
Wind Speed 1 mph (NW)    
Max Wind Speed 7 mph    
Max Gust Speed -    
Visibility 10 miles    
Events Snow    
Averages and records for this station are not official NWS values.
T = Trace of Precipitation, MM = Missing Value Source: NWS Daily Summary

Daily Weather History Graph

Daily Weather History Graph

Search for Another Location

Airport or City:

Trip Planner

Search our weather history database for the weather conditions in past years. The results will help you decide how hot, cold, wet, or windy it might be!

Date:

Astronomy

Nov. 13, 2012 Rise Set
Actual Time 7:20 AM EST 5:24 PM EST
Civil Twilight 6:51 AM EST 5:52 PM EST
Nautical Twilight 6:19 AM EST 6:25 PM EST
Astronomical Twilight 5:47 AM EST 6:57 PM EST
Moon 6:57 AM EST (11/13) 5:16 PM EST (11/13)
Length of Visible Light 11h 01m
Length of Day
10h 04m
Waning Crescent, 0% of the Moon is Illuminated
Nov 13
Waning Crescent
Nov 13
New
Nov 20
First Quarter
Nov 28
Full
Dec 6
Last Quarter

Hourly Weather History & Observations

Time (EST) Temp. Windchill Dew Point Humidity Pressure Visibility Wind Dir Wind Speed Gust Speed Precip Events Conditions
12:53 AM 25.0 °F - 21.9 °F 88% 30.44 in 9.0 mi Calm Calm - 0.00 in Snow Light Snow
1:53 AM 25.0 °F - 21.9 °F 88% 30.44 in 9.0 mi Calm Calm - 0.00 in Snow Light Snow
2:53 AM 23.0 °F - 19.9 °F 88% 30.45 in 9.0 mi Calm Calm - 0.00 in Snow Light Snow
3:53 AM 23.0 °F - 19.9 °F 88% 30.45 in 9.0 mi Calm Calm - 0.00 in Snow Light Snow
4:53 AM 21.9 °F - 19.0 °F 89% 30.46 in 9.0 mi Calm Calm - 0.00 in Snow Light Snow
5:53 AM 21.0 °F - 18.0 °F 88% 30.48 in 9.0 mi Calm Calm - 0.00 in Snow Light Snow
6:53 AM 21.0 °F - 17.1 °F 85% 30.50 in 9.0 mi Calm Calm - 0.00 in Snow Light Snow
7:53 AM 21.9 °F - 19.0 °F 89% 30.52 in 9.0 mi Calm Calm - 0.00 in Snow Light Snow
8:53 AM 30.9 °F 27.5 °F 28.0 °F 89% 30.53 in 10.0 mi Variable 3.5 mph - 0.00 in   Clear
9:53 AM 35.1 °F 32.2 °F 28.0 °F 76% 30.53 in 10.0 mi SW 3.5 mph - N/A   Clear
10:53 AM 39.0 °F 35.7 °F 27.0 °F 62% 30.53 in 10.0 mi WNW 4.6 mph - N/A   Clear
11:53 AM 39.9 °F 36.7 °F 26.1 °F 58% 30.53 in 10.0 mi WNW 4.6 mph - N/A   Scattered Clouds
12:53 PM 42.1 °F 37.7 °F 23.0 °F 47% 30.51 in 10.0 mi West 6.9 mph - N/A   Clear
1:53 PM 42.1 °F 39.2 °F 24.1 °F 49% 30.49 in 10.0 mi Variable 4.6 mph - N/A   Partly Cloudy
2:53 PM 43.0 °F 40.3 °F 21.9 °F 43% 30.49 in 10.0 mi NNW 4.6 mph - N/A   Clear
3:53 PM 42.1 °F 40.2 °F 23.0 °F 47% 30.50 in 10.0 mi Variable 3.5 mph - N/A   Clear
4:53 PM 39.0 °F 36.8 °F 24.1 °F 55% 30.50 in 10.0 mi North 3.5 mph - N/A   Clear
5:53 PM 30.9 °F 27.5 °F 25.0 °F 79% 30.51 in 10.0 mi North 3.5 mph - N/A   Clear
6:53 PM 28.9 °F 23.9 °F 24.1 °F 82% 30.53 in 10.0 mi NNE 4.6 mph - N/A   Clear
7:53 PM 28.0 °F - 23.0 °F 81% 30.53 in 10.0 mi Calm Calm - N/A   Clear
8:53 PM 25.0 °F - 21.9 °F 88% 30.54 in 10.0 mi Calm Calm - N/A   Clear
9:53 PM 25.0 °F - 21.0 °F 85% 30.56 in 10.0 mi Calm Calm - N/A   Clear
10:53 PM 23.0 °F - 19.9 °F 88% 30.56 in 10.0 mi Calm Calm - N/A   Clear
11:53 PM 23.0 °F - 19.9 °F 88% 30.55 in 8.0 mi Calm Calm - N/A   Clear